Air Resources Laboratory banner image
Air Resources Laboratory web site National Oceanic and Atmospheric Administration (NOAA)

ms roundup


Office: JAN

ASUS44 KJAN 210310
RWRMS

MISSISSIPPI HOURLY WEATHER ROUNDUP
NATIONAL WEATHER SERVICE JACKSON MS
900 PM CST TUE FEB 20 2018

NOTE: "FAIR: INDICATES FEW OR NO CLOUDS BELOW 12,000 FEET WITH NO
SIGNIFICANT WEATHER AND/OR OBSTRUCTIONS TO VISIBILITY.

MSZ001>002-007>008-010>013-018>021-025>028-034>036-210400-
NORTHWEST MISSISSIPPI

CITY           SKY/WX    TMP DP  RH WIND       PRES   REMARKS
BATESVILLE       N/A    N/A N/A N/A MISG        N/A
CLARKSDALE     MOCLDY    73  66  78 SE15      30.07R
CLEVELAND      MOCLDY    73  65  75 S13       30.07R
GREENWOOD      FAIR      73  65  75 S16       30.11R
GREENVILLE     MOCLDY    73  61  65 S9        30.07R
OXFORD         FAIR      72  61  68 S8        30.13R
TUNICA           N/A     70  63  78 SE15      30.06S
WINONA         FAIR      72  64  77 S7        30.14R
$$

MSZ003>006-009-014>017-022>024-029>033-037>039-210400-
NORTHEAST MISSISSIPPI

CITY           SKY/WX    TMP DP  RH WIND       PRES   REMARKS
ABERDEEN       MOCLDY    75  73  94 S12G18    30.18R
COLUMBUS AFB   TSTM      66  63  88 SE9       30.18R
CORINTH        CLOUDY    70  61  73 SE9       30.14S
GOLDN TRIANGLE CLOUDY    74  64  71 S16       30.19R
STARKVILLE     MOCLDY    72  63  73 S13G18    30.18S
TUPELO         MOCLDY    73  60  63 SE13      30.15R
$$

MSZ040-058-210400-
CENTRAL MISSISSIPPI

CITY           SKY/WX    TMP DP  RH WIND       PRES   REMARKS
JACKSON INTL   FAIR      71  66  84 SE14      30.15R
JACKSON HAWKNS FAIR      73  67  81 S12       30.15R
MADISON        FAIR      70  64  83 SE5       30.15R
MERIDIAN KEY   FAIR      74  66  76 S12       30.21R
MERIDIAN NAS   FAIR      73  66  78 S8        30.21R
RAYMOND        FAIR      73  66  78 S10       30.14R
VICKSBURG VKS  CLOUDY    77  64  65 S13       30.13R
$$

MSZ059>079-210400-
SOUTH MISSISSIPPI

CITY           SKY/WX    TMP DP  RH WIND       PRES   REMARKS
COLUMBIA       CLOUDY    72  68  88 SE8       30.23R
HATTIESBURG    CLOUDY    71  71 100 SE5       30.22R
LAUREL         CLOUDY    70  70 100 CALM      30.22R
MCCOMB         CLOUDY    71  68  90 SE8       30.18R
NATCHEZ        FAIR      73  63  70 S9        30.14R
PINE BELT      FAIR      70  69  97 SE7       30.22R
$$

MSZ080>082-210400-
COASTAL MISSISSIPPI

CITY           SKY/WX    TMP DP  RH WIND       PRES   REMARKS
BAY ST LOUIS   MOCLDY    72  70  94 SE7       30.19S
BILOXI         FAIR      72  70  92 SE10      30.20R
PASCAGOULA     CLOUDY    71  67  87 SE9       30.22R
GULFPORT       CLOUDY    72  71  97 SE14      30.20R
$$

LAZ007>009-015>016-023>026-210400-
NORTHEAST LOUISIANA

CITY           SKY/WX    TMP DP  RH WIND       PRES   REMARKS
BASTROP        FAIR      75  66  74 S7        30.09S
TALLULAH/VBURG FAIR      71  66  84 S7        30.12R
VIDALIA        FAIR      69  64  81 S7        30.11S
$$